Вернуться в каталог

ATLAS 5 CENTAUR R/B

АктивенHEO
NORAD 43227·ROCKET BODY·🇺🇸 United States

Запущен Mar 1, 2018 с Cape Canaveral Space Force Station

Loading…

Ближайшие Пролёты (ближайшие 24 часа)

TLE

СвежийSource: Space-Track

Эпоха: Sep 13, 2026, 06:51 UTC

1 43227U 18022B   26256.28574405 -.00000126  00000-0  00000-0 0  9997
2 43227  10.6058   3.9681 4956944 101.1800 316.2825  1.88584803 13757

Отслеживайте ATLAS 5 CENTAUR R/B в реальном времени с AllMySat

Download on the App Store